DW6283 Weather Reports


Display with metric or nautical units.
time (UTC)temp
F
wind
direction
speed
MPH
gust
MPH
rain 1hr
in
rain 24hr
in
rain mn
in
humidity
%
barometer
mb
20260508094502 60 100 0.0 3.0 0.00 0.00 0.00 86 1013.8
20260508093003 61 100 0.0 1.0 0.00 0.00 0.00 86 1013.7
20260508091549 61 101 0.0 1.0 0.00 0.00 0.00 86 1013.8
20260508090042 62 101 0.0 2.0 0.00 0.00 0.00 85 1013.7
20260508084519 63 101 0.0 1.0 0.00 0.00 0.00 84 1013.8
20260508083017 63 101 0.0 2.0 0.00 0.00 0.00 84 1013.9
20260508081604 64 116 0.0 1.0 0.00 0.00 0.00 83 1014.0
20260508080056 64 116 0.0 1.0 0.00 0.00 0.00 82 1014.0
20260508074547 65 116 0.0 1.0 0.00 0.00 0.00 81 1014.0
20260508073035 65 116 0.0 0.0 0.00 0.00 0.00 79 1013.8
20260508071525 66 116 0.0 1.0 0.00 0.00 0.00 78 1013.8
20260508070018 67 116 0.0 1.0 0.00 0.00 0.00 77 1013.7
20260508064618 67 116 0.0 0.0 0.00 0.00 0.00 76 1013.7
20260508063058 68 116 0.0 1.0 0.00 0.00 0.00 75 1013.5
20260508061601 69 116 0.0 1.0 0.00 0.00 0.00 74 1013.6
20260508060040 69 117 0.0 1.0 0.00 0.00 0.00 72 1013.5
20260508054540 70 117 0.0 2.0 0.00 0.00 0.00 71 1013.6
20260508053024 71 118 0.0 1.0 0.00 0.00 0.00 69 1013.6
20260508051525 71 118 0.0 3.0 0.00 0.00 0.00 68 1013.6
20260508050004 72 118 0.0 2.0 0.00 0.00 0.00 67 1013.6
20260508044504 73 118 0.0 2.0 0.00 0.00 0.00 66 1013.7
20260508043058 73 118 0.0 3.0 0.00 0.00 0.00 65 1013.6
20260508041551 74 115 0.0 2.0 0.00 0.00 0.00 63 1013.4
20260508040051 75 84 0.0 1.0 0.00 0.00 0.00 61 1013.2
20260508034550 76 84 0.0 5.0 0.00 0.00 0.00 58 1013.1
20260508033049 77 94 0.0 3.0 0.00 0.00 0.00 56 1012.9
20260508031549 78 96 0.0 3.0 0.00 0.00 0.00 53 1012.7
20260508030048 79 94 0.0 3.0 0.00 0.00 0.00 51 1012.6
20260508024547 80 100 0.0 2.0 0.00 0.00 0.00 49 1012.5
20260508023030 82 89 0.0 3.0 0.00 0.00 0.00 47 1012.3
20260508021534 83 61 0.0 5.0 0.00 0.00 0.00 45 1012.2
20260508020010 84 99 0.0 6.0 0.00 0.00 0.00 44 1012.2
20260508014513 85 94 0.0 5.0 0.00 0.00 0.00 42 1012.1
20260508013052 86 144 0.0 3.0 0.00 0.00 0.00 41 1012.1
20260508011552 87 138 0.0 5.0 0.00 0.00 0.00 40 1012.0
20260508010035 88 86 0.0 3.0 0.00 0.00 0.00 39 1012.1
20260508004538 88 111 0.0 4.0 0.00 0.00 0.00 39 1012.2
20260508003016 89 96 0.0 7.0 0.00 0.00 0.00 38 1012.2
20260508001517 89 88 0.0 7.0 0.00 0.00 0.00 38 1012.4
20260508000054 90 171 0.0 3.0 0.00 0.00 0.00 37 1012.5
20260507234553 90 140 0.0 3.0 0.00 0.00 0.00 37 1012.6
20260507233038 91 59 0.0 5.0 0.00 0.00 0.00 37 1012.7
20260507231533 91 122 0.0 7.0 0.00 0.00 0.00 36 1012.9
20260507230014 91 126 0.0 7.0 0.00 0.00 0.00 36 1013.1
20260507224513 91 49 0.0 7.0 0.00 0.00 0.00 35 1013.2
20260507223054 92 126 0.0 5.0 0.00 0.00 0.00 35 1013.5
20260507221554 92 57 0.0 4.0 0.00 0.00 0.00 35 1013.7
20260507220035 92 110 0.0 5.0 0.00 0.00 0.00 34 1013.9
20260507214531 92 91 0.0 2.0 0.00 0.00 0.00 33 1014.2
20260507213012 92 114 0.0 3.0 0.00 0.00 0.00 33 1014.4
20260507211509 92 142 0.0 4.0 0.00 0.00 0.00 33 1014.7
20260507210054 91 246 0.0 2.0 0.00 0.00 0.00 35 1014.8
20260507204546 90 58 0.0 2.0 0.00 0.00 0.00 38 1015.0
20260507203027 90 87 0.0 2.0 0.00 0.00 0.00 36 1015.2
20260507201525 91 86 0.0 2.0 0.00 0.00 0.00 35 1015.4
20260507200006 90 86 0.0 1.0 0.00 0.00 0.00 34 1015.5
20260507194503 89 59 0.0 3.0 0.00 0.00 0.00 35 1015.7
20260507193041 89 104 0.0 1.0 0.00 0.00 0.00 38 1015.8
20260507191544 88 46 0.0 1.0 0.00 0.00 0.00 37 1016.0
20260507190020 88 48 0.0 2.0 0.00 0.00 0.00 36 1016.2
20260507184518 87 44 0.0 0.0 0.00 0.00 0.00 38 1016.4
20260507183057 86 110 0.0 2.0 0.00 0.00 0.00 40 1016.6
20260507181554 86 58 0.0 1.0 0.00 0.00 0.00 41 1016.8
20260507180035 85 58 0.0 1.0 0.00 0.00 0.00 42 1016.9
20260507174536 84 58 0.0 3.0 0.00 0.00 0.00 44 1016.9
20260507173009 83 77 0.0 1.0 0.00 0.00 0.00 45 1017.0
20260507171506 81 76 0.0 3.0 0.00 0.00 0.00 47 1017.2
20260507170044 80 125 0.0 1.0 0.00 0.00 0.00 47 1017.3
20260507164543 80 125 0.0 2.0 0.00 0.00 0.00 47 1017.3
20260507163023 79 125 0.0 0.0 0.00 0.00 0.00 48 1017.4
20260507161519 77 125 0.0 0.0 0.00 0.00 0.00 50 1017.4
20260507160059 76 125 0.0 1.0 0.00 0.00 0.00 53 1017.4
20260507154602 74 125 0.0 0.0 0.00 0.00 0.00 55 1017.4
20260507153040 72 125 0.0 0.0 0.00 0.00 0.00 60 1017.5
20260507151529 70 125 0.0 0.0 0.00 0.00 0.00 63 1017.5
20260507150006 67 125 0.0 0.0 0.00 0.00 0.00 70 1017.6
20260507144503 64 125 0.0 0.0 0.00 0.00 0.00 76 1017.5
20260507143044 61 125 0.0 0.0 0.00 0.00 0.00 81 1017.5
20260507141545 58 125 0.0 0.0 0.00 0.00 0.00 87 1017.4
20260507140026 55 125 0.0 0.0 0.00 0.00 0.00 89 1017.2
20260507134526 54 125 0.0 0.0 0.00 0.00 0.00 89 1017.1
20260507133007 54 125 0.0 0.0 0.00 0.00 0.00 88 1017.1
20260507131516 54 125 0.0 0.0 0.00 0.00 0.00 88 1016.9
20260507130048 54 125 0.0 0.0 0.00 0.00 0.00 87 1016.8
20260507124548 54 125 0.0 0.0 0.00 0.00 0.00 87 1016.7
20260507123030 55 125 0.0 0.0 0.00 0.00 0.00 87 1016.8
20260507121529 55 125 0.0 0.0 0.00 0.00 0.00 87 1016.8
20260507120018 55 125 0.0 0.0 0.00 0.00 0.00 87 1016.7
20260507114508 55 125 0.0 0.0 0.00 0.00 0.00 86 1016.8
20260507113051 56 125 0.0 0.0 0.00 0.00 0.00 85 1016.7
20260507111549 56 125 0.0 0.0 0.00 0.00 0.00 84 1016.8
20260507110031 56 125 0.0 0.0 0.00 0.00 0.00 84 1016.8
20260507104530 56 125 0.0 0.0 0.00 0.00 0.00 83 1016.8
20260507103025 57 125 0.0 0.0 0.00 0.00 0.00 83 1016.8
20260507101511 57 125 0.0 0.0 0.00 0.00 0.00 82 1016.8
20260507100053 58 125 0.0 0.0 0.00 0.00 0.00 81 1016.8